Location: Kam�li
(14.6864°N, 3.1482°W)
Time: 01:51:59
(UTC+00:00)

CCE 1 Rocket - Pass Details

Date: 29 October 2020
Orbit: 543 x 3984 km, 28.9° (Epoch: 02 December)

Event Time Altitude Azimuth Distance (km) Brightness Sun altitude
Rises 19:08:25 0° 294° (WNW) 2,882 7.9 -20.6°
Reaches altitude 10° 19:10:18 10° 292° (WNW) 2,124 7.1 -21.0°
Maximum altitude 19:15:02 77° 207° (SSW) 951 4.4 -22.1°
Enters shadow 19:19:11 28° 125° (SE) 2,088 5.8 -23.1°
